[[{"header":{"parameterUnit":"m.s-1","parameterCategory":1,"la1":30.2991,"la2":30.254,"lo1":-89.0895,"lo2":-89.0444,"dy":0.0017,"dx":0.0017,"nx":28,"ny":28,"refTime":"2024-03-15T09:00:00:Z","depth":0,"parameterNumber":2,"parameterNumberName":"U-component_of_WINDS"},"data":[0,0,0,0,0,0,0,0,0,0,0,0,0,0,0,0,0,0,0,0,0,0,0,0,0,0,0,0,0,0,0,0,0,0,0,0,0,0,0,0,0,0,0,0,0,0,0,0,0,0,0,0,0,0,0,0,0,0,-1.9788,-1.9788,0,-1.98,-1.98,-1.98,-1.9751,-1.975,-1.9748,-1.9747,-1.9759,-1.9761,-1.9762,0,0,0,0,0,0,0,0,0,0,0,0,0,-1.9723,-1.9725,-1.9788,-1.9788,-1.9788,-1.98,-1.98,-1.98,-1.9751,-1.975,-1.9748,-1.9746,-1.9759,-1.9761,-1.9763,0,0,0,0,0,0,0,0,0,0,0,0,0,-1.9745,-1.9725,-1.9788,-1.9765,-1.9763,-1.98,-1.98,-1.98,-1.9752,-1.975,-1.9747,-1.9745,-1.9758,-1.976,-1.9763,-1.9822,0,0,-1.9771,-1.9772,0,0,0,0,0,0,0,0,-1.9744,-1.9747,-1.9768,-1.9767,-1.9765,-1.9772,-1.9782,-1.9807,-1.9752,-1.9756,-1.9747,-1.9744,-1.9765,-1.9767,-1.9774,-1.9822,-1.9823,-1.9771,-1.9772,-1.9773,-1.9774,0,0,0,0,0,0,0,-1.9742,-1.9746,-1.9792,-1.9769,-1.9766,-1.9755,-1.9755,-1.9786,-1.9773,-1.9756,-1.9752,-1.9754,-1.9764,-1.9772,-1.9774,-1.9823,-1.9771,-1.9773,-1.9774,-1.9775,-1.992,-1.9922,0,0,0,0,0,0,-1.9744,-1.9745,-1.9792,-1.9793,-1.9749,-1.9758,-1.9758,-1.9772,-1.9772,-1.977,-1.9756,-1.9752,-1.9768,-1.9771,-1.9774,-1.9842,-1.9773,-1.9776,-1.9777,-1.9918,-1.9921,-1.9923,0,0,0,0,0,0,-1.9742,-1.9748,-1.9791,-1.9768,-1.9773,-1.9761,-1.9776,-1.9773,-1.9781,-1.9772,-1.977,-1.9766,-1.9767,-1.977,-1.981,-1.9842,-1.9777,-1.9779,-1.9915,-1.9919,-1.9922,-1.998,0,0,0,0,0,0,-1.9741,-1.9748,-1.977,-1.9769,-1.9774,-1.9827,-1.9778,-1.9775,-1.9785,-1.978,-1.9782,-1.978,-1.9765,-1.9807,-1.9813,-1.9844,-1.9781,-1.9912,-1.9917,-1.9921,-1.9975,-1.9985,-1.9993,0,0,0,0,0,-1.9739,-1.9786,-1.9771,-1.9777,-1.9801,-1.9829,-1.9832,-1.9815,-1.9788,-1.981,-1.9805,-1.978,-1.9838,-1.9811,-1.9817,-1.985,-1.991,-1.9915,-1.992,-1.9971,-1.9983,-1.9993,0,0,0,0,0,0,-1.979,-1.9785,-1.9769,-1.9817,-1.9824,-1.9821,-1.9848,-1.9828,-1.9842,-1.9837,-1.9815,-1.9816,-1.9859,-1.9859,-1.9829,-1.9907,-1.9869,-1.9876,-1.9905,-1.9917,-1.9926,-1.9924,-1.9783,0,0,0,0,0,-1.9807,-1.983,-1.9825,-1.9868,-1.9872,-1.986,-1.9871,-1.9857,-1.9863,-1.9866,-1.9864,-1.9871,-1.989,-1.9904,-1.9922,-1.9975,-1.9975,-2.0001,-2.001,-2.0018,-2.0024,-2.0052,-2.0063,-1.994,-1.994,-1.994,0,0,-1.9843,-1.9843,-1.9858,-1.9878,-1.9882,-1.9906,-1.9862,-1.989,-1.9908,-1.987,-1.9907,-1.9906,-1.9912,-1.9959,-1.998,-1.996,-2.0058,-2.0025,-2.0031,-2.0032,-2.0058,-2.007,-2.008,-1.9944,-1.9943,-1.9943,0,0,-1.9919,-1.9922,-1.9958,-1.9963,-1.9969,-1.996,-1.9969,-1.997,-1.9967,-2.0004,-1.9977,-1.9998,-2.0033,-2.0038,-2.0046,-2.0126,-2.0104,-2.0133,-2.018,-2.0208,-2.0218,-2.0226,-2.0254,-2.0264,-2.0139,-2.0139,-2.0139,0,-1.9962,-1.9997,-1.9979,-2.0008,-2.0018,-1.9986,-2.0022,-2.0028,-2.004,-2.0047,-2.0026,-2.0069,-2.0071,-2.0118,-2.0138,-2.0146,-2.0155,-2.0132,-2.0218,-2.0226,-2.0234,-2.026,-2.0271,-2.0143,-2.0142,-2.0142,-2.0142,0,-2.0049,-2.0074,-2.0103,-2.0115,-2.0128,-2.0161,-2.0148,-2.0163,-2.0149,-2.0143,-2.0182,-2.0183,-2.0201,-2.0212,-2.0198,-2.0258,-2.0245,-2.0222,-2.0182,-2.0249,-2.0273,-2.0283,-2.0148,-2.0146,-2.0145,-2.0144,0,0,-2.0156,-2.0159,-2.017,-2.0175,-2.018,-2.0199,-2.0232,-2.0249,-2.0262,-2.0272,-2.0298,-2.0329,-2.0307,-2.0316,-2.0303,-2.0327,-2.039,-2.03,-2.03,-2.0316,-2.0456,-2.0472,-2.0484,-2.0376,-2.0378,-2.038,-2.0455,0,-2.023,-2.0284,-2.0269,-2.0323,-2.0346,-2.0317,-2.0345,-2.0351,-2.0347,-2.0366,-2.0362,-2.0384,-2.0354,-2.0359,-2.0382,-2.0378,-2.0418,-2.0372,-2.0399,-2.04,-2.0397,-2.0497,-2.0515,-2.0585,-2.0464,-2.0466,-2.0467,0,-2.0323,-2.0336,-2.0393,-2.0395,-2.0404,-2.0429,-2.0444,-2.0463,-2.047,-2.0466,-2.0476,-2.0458,-2.049,-2.0453,-2.0496,-2.0465,-2.0476,-2.0476,-2.0478,-2.0478,-2.0436,-2.0499,-2.0607,-2.0617,-2.0482,-2.0481,-2.048,0,-2.0394,-2.0427,-2.0464,-2.047,-2.0474,-2.0492,-2.0494,-2.05,-2.0511,-2.0525,-2.0532,-2.055,-2.0559,-2.0573,-2.056,-2.0534,-2.0606,-2.0567,-2.0602,-2.0602,-2.0616,-2.0615,-2.0727,-2.0626,-2.0626,-2.0626,-2.0626,0,-2.0477,-2.0512,-2.0496,-2.0519,-2.0558,-2.0542,-2.0581,-2.058,-2.0585,-2.0607,-2.0584,-2.0606,-2.0589,-2.061,-2.06,-2.0637,-2.0642,-2.0639,-2.0635,-2.064,-2.064,-2.0645,-2.0639,-2.0629,-2.0628,-2.0628,-2.0627,0,-2.0561,-2.0552,-2.0591,-2.0592,-2.0593,-2.0622,-2.0623,-2.0644,-2.0639,-2.0668,-2.0674,-2.0666,-2.0689,-2.0679,-2.0703,-2.0697,-2.0744,-2.0735,-2.0741,-2.0738,-2.0773,-2.077,-2.089,-2.0905,-2.0797,-2.0798,-2.0799,0,-2.0614,-2.064,-2.0644,-2.0658,-2.0662,-2.0684,-2.0696,-2.0681,-2.0695,-2.0706,-2.0726,-2.0747,-2.0763,-2.0801,-2.0798,-2.0816,-2.0807,-2.0848,-2.0809,-2.0813,-2.0806,-2.0803,-2.0806,-2.0855,-2.0856,-2.0857,-2.0858,0,-2.0708,-2.0702,-2.072,-2.0738,-2.0753,-2.0765,-2.0776,-2.0788,-2.0774,-2.0791,-2.0814,-2.0826,-2.0851,-2.0872,-2.0889,-2.0892,-2.0872,-2.0871,-2.0879,-2.0883,-2.0885,-2.0883,-2.0761,-2.0867,-2.0866,-2.0866,-2.0865,-2.0865,-2.0777,-2.0799,-2.0806,-2.0827,-2.0833,-2.0844,-2.0864,-2.0862,-2.0882,-2.09,-2.0891,-2.0918,-2.0926,-2.0946,-2.0952,-2.0973,-2.0956,-2.0969,-2.0972,-2.0975,-2.0979,-2.0883,-2.0976,-2.0976,-2.0975,-2.0975,-2.0975,0,-2.0869,-2.0872,-2.0891,-2.0907,-2.0924,-2.0906,-2.0917,-2.0932,-2.0956,-2.0965,-2.0981,-2.1008,-2.1029,-2.1028,-2.1047,-2.1064,-2.1056,-2.1069,-2.1067,-2.1068,-2.0993,-2.0983,-2.1076,-2.1076,-2.1076,-2.1076,-2.1076,-2.1076,-2.0918,-2.0954,-2.095,-2.099,-2.0993,-2.1019,-2.1027,-2.1037,-2.1043,-2.1075,-2.1092,-2.1091,-2.1096,-2.1116,-2.1134,-2.1133,-2.114,-2.1157,-2.1153,-2.1083,-2.1073,-2.1063,-2.1054,-2.1159,-2.116,-2.1225,-2.1226,-2.1227]},{"header":{"parameterUnit":"m.s-1","parameterCategory":1,"la1":30.2991,"la2":30.254,"lo1":-89.0895,"lo2":-89.0444,"dy":0.0017,"dx":0.0017,"nx":28,"ny":28,"refTime":"2024-03-15T09:00:00:Z","depth":0,"parameterNumber":3,"parameterNumberName":"V-component_of_WINDS"},"data":[0,0,0,0,0,0,0,0,0,0,0,0,0,0,0,0,0,0,0,0,0,0,0,0,0,0,0,0,0,0,0,0,0,0,0,0,0,0,0,0,0,0,0,0,0,0,0,0,0,0,0,0,0,0,0,0,0,0,1.4196,1.4197,0,1.4265,1.4266,1.4267,1.4339,1.434,1.4341,1.4342,1.441,1.4411,1.4412,0,0,0,0,0,0,0,0,0,0,0,0,0,1.4126,1.4127,1.4196,1.4197,1.4198,1.4265,1.4266,1.4267,1.4339,1.434,1.4341,1.4342,1.441,1.4411,1.4412,0,0,0,0,0,0,0,0,0,0,0,0,0,1.4172,1.4127,1.4196,1.4242,1.4247,1.4265,1.4266,1.4267,1.4339,1.434,1.4342,1.4343,1.441,1.4411,1.4412,1.439,0,0,1.4416,1.4417,0,0,0,0,0,0,0,0,1.4169,1.4174,1.4234,1.4239,1.4244,1.4295,1.4266,1.4308,1.4338,1.4304,1.4342,1.4344,1.4371,1.4375,1.4385,1.4393,1.4396,1.4416,1.4417,1.4418,1.4418,0,0,0,0,0,0,0,1.4166,1.4172,1.4224,1.4235,1.4241,1.4259,1.4267,1.4275,1.4328,1.4307,1.4312,1.4319,1.4374,1.4383,1.4387,1.4397,1.4416,1.4417,1.4418,1.4419,1.4393,1.4392,0,0,0,0,0,0,1.4156,1.4168,1.4221,1.4226,1.421,1.4259,1.4268,1.4277,1.4328,1.4337,1.4318,1.4323,1.438,1.4385,1.439,1.4369,1.4418,1.4419,1.442,1.4394,1.4393,1.4391,0,0,0,0,0,0,1.4154,1.416,1.4219,1.4199,1.4207,1.4258,1.4268,1.4278,1.4288,1.4336,1.4346,1.4318,1.4382,1.4388,1.439,1.4372,1.442,1.4421,1.4396,1.4394,1.4392,1.4325,0,0,0,0,0,0,1.4152,1.4159,1.4151,1.4198,1.4208,1.4218,1.4267,1.4278,1.429,1.4297,1.4339,1.4348,1.4383,1.4388,1.4391,1.4374,1.4422,1.4398,1.4395,1.4393,1.4329,1.4321,1.4314,0,0,0,0,0,1.4149,1.4128,1.415,1.4156,1.42,1.4217,1.4223,1.4265,1.4288,1.4281,1.4313,1.4346,1.4373,1.4387,1.4392,1.4375,1.4399,1.4396,1.4393,1.4332,1.4322,1.4314,0,0,0,0,0,0,1.4077,1.4135,1.416,1.4154,1.418,1.4229,1.4221,1.4252,1.4271,1.4276,1.4327,1.4336,1.4333,1.4354,1.4369,1.4357,1.4391,1.4388,1.4344,1.4334,1.4327,1.4322,1.4423,0,0,0,0,0,1.406,1.407,1.412,1.411,1.4122,1.4169,1.4178,1.4208,1.4237,1.4248,1.428,1.4305,1.432,1.4328,1.4344,1.4332,1.4343,1.4323,1.4315,1.4309,1.4306,1.4303,1.4295,1.438,1.438,1.438,0,0,1.4026,1.4059,1.4062,1.4097,1.412,1.4129,1.4178,1.4184,1.4191,1.4249,1.4254,1.4278,1.431,1.4305,1.4305,1.4323,1.4285,1.4305,1.4299,1.43,1.4299,1.4291,1.4284,1.4378,1.4378,1.4379,0,0,1.3969,1.3994,1.399,1.4013,1.4049,1.408,1.4079,1.4123,1.4142,1.4148,1.4192,1.42,1.4224,1.4246,1.4259,1.4212,1.4244,1.4215,1.4175,1.4172,1.4165,1.4159,1.4144,1.4137,1.4213,1.4212,1.4212,0,1.3922,1.3937,1.3983,1.3988,1.4002,1.4056,1.4052,1.4072,1.411,1.4119,1.4139,1.417,1.4196,1.4198,1.4187,1.4196,1.4196,1.4211,1.4162,1.4157,1.4153,1.4138,1.4132,1.4209,1.4209,1.421,1.421,0,1.3878,1.3888,1.388,1.3918,1.3931,1.3931,1.3977,1.3985,1.4014,1.4044,1.405,1.4082,1.4106,1.4109,1.4137,1.4115,1.4126,1.4153,1.4188,1.414,1.4128,1.4122,1.4204,1.4205,1.4206,1.4207,0,0,1.3777,1.3841,1.3837,1.3856,1.39,1.3908,1.3911,1.3936,1.3942,1.3967,1.3971,1.399,1.4017,1.4032,1.4063,1.406,1.4022,1.4088,1.409,1.4076,1.4002,1.3982,1.3974,1.4044,1.4043,1.4042,1.4,0,1.3728,1.3737,1.378,1.3776,1.3787,1.3838,1.3841,1.3868,1.3896,1.3909,1.3939,1.3953,1.3986,1.3996,1.3995,1.4027,1.4008,1.403,1.4048,1.4048,1.404,1.3968,1.3946,1.3905,1.3995,1.3994,1.3993,0,1.3672,1.3695,1.3693,1.3739,1.3745,1.3746,1.3773,1.3785,1.3817,1.3837,1.3856,1.3891,1.3897,1.3929,1.3939,1.3953,1.3963,1.398,1.3979,1.3983,1.4018,1.3971,1.3892,1.3886,1.3986,1.3986,1.3987,0,1.36,1.363,1.3634,1.3648,1.37,1.37,1.3722,1.3756,1.3769,1.3792,1.3801,1.3823,1.3836,1.3853,1.3894,1.3914,1.3899,1.3935,1.3917,1.3916,1.3912,1.3912,1.3835,1.3916,1.3916,1.3917,1.3917,0,1.3542,1.3539,1.3603,1.3605,1.3603,1.3652,1.3649,1.3675,1.3705,1.3713,1.3759,1.3765,1.3818,1.3831,1.3862,1.3866,1.3871,1.3888,1.3897,1.3885,1.3883,1.3892,1.3897,1.3915,1.3915,1.3916,1.3916,0,1.3461,1.3504,1.3511,1.3561,1.3573,1.357,1.3612,1.3616,1.3647,1.3657,1.3662,1.3711,1.3728,1.377,1.3798,1.382,1.3816,1.3831,1.3805,1.3811,1.3791,1.3793,1.3719,1.3712,1.3796,1.3795,1.3794,0,1.3422,1.3421,1.3471,1.348,1.3501,1.3515,1.3528,1.3576,1.3588,1.3626,1.3625,1.3647,1.3666,1.3692,1.3729,1.3751,1.3768,1.374,1.3771,1.376,1.3769,1.3769,1.377,1.3734,1.3732,1.3732,1.3731,0,1.3347,1.3369,1.3387,1.3413,1.3429,1.3451,1.3476,1.3481,1.3535,1.3546,1.3565,1.3581,1.361,1.3631,1.3659,1.3682,1.3715,1.3721,1.3718,1.3706,1.3692,1.3701,1.3788,1.3722,1.3723,1.3724,1.3724,1.3725,1.3287,1.329,1.3326,1.3345,1.3369,1.3392,1.3399,1.3431,1.3448,1.3477,1.3504,1.352,1.3554,1.3595,1.3615,1.3629,1.3646,1.3641,1.3641,1.3639,1.3634,1.3689,1.3634,1.3634,1.3634,1.3635,1.3635,0,1.3216,1.3243,1.326,1.3294,1.331,1.3341,1.337,1.3381,1.3395,1.3424,1.3443,1.3465,1.3486,1.3525,1.355,1.3553,1.3569,1.3558,1.3559,1.3563,1.3617,1.3617,1.3545,1.3545,1.3545,1.3545,1.3545,1.3545,1.3182,1.3188,1.3214,1.3233,1.3259,1.3276,1.3291,1.3312,1.3335,1.3359,1.3377,1.3403,1.3436,1.3463,1.3484,1.3495,1.3502,1.3486,1.3502,1.3551,1.3559,1.3568,1.3569,1.3487,1.3486,1.3447,1.3447,1.3447]}]]